Weather Roundup
Issued by NWS

Home | Current Version | Previous Version | Graphics & Text | Print | Product List | Glossary Off
Versions: 1 2 3 4 5 6 7 8 9 10 11 12 13 14 15 16 17 18 19 20 21 22 23 24 25 26 27 28 29 30 31 32 33 34 35 36 37 38 39 40 41 42 43 44 45 46 47 48 49 50

052
NZUS93 KARX 251110
HRRWXR

CURRENT HOURLY OBSERVATIONS ACROSS
MUCH OF THE UPPER MISSISSIPPI VALLEY
NATIONAL WEATHER SERVICE LA CROSSE WI
500 AM CST SUN FEB 25 2018


...SOUTHEAST MINNESOTA...


CITY           SKY/WX    TMP DP  RH WIND       PRES   REMARKS
ROCHESTER      CLOUDY    17  15  92 W21G31    29.62R WCI   0
ROCHESTER/MAYO CLOUDY    19  17  90 W14G28    29.63R WCI   6
WINONA         CLOUDY    21  18  86 W14G20    29.64R WCI   8
AUSTIN         MOCLDY    16  12  86 W10       29.67R WCI   3
ALBERT LEA       N/A     16  12  86 SW6       29.67R WCI   7
DODGE CENTER   CLOUDY    16  14  93 W17       29.62R WCI   0
PRESTON        CLOUDY    18  14  86 W16G22    29.65R FOG     WCI   3
OWATONNA       CLOUDY    16  12  86 SW16      29.64R WCI   0
FARIBAULT      CLOUDY    18  16  93 SW13      29.63R WCI   4
$$

...ELSEWHERE IN MINNESOTA...


CITY           SKY/WX    TMP DP  RH WIND       PRES   REMARKS
MINNEAPOLIS    CLOUDY    17  15  92 W12       29.59R WCI   4
INTNL FALLS    FLURRIES  22  20  92 NW7       29.31S WCI  13
DULUTH         CLOUDY    24  20  84 W22G33    29.29R BLWGSNOWWCI   9
RED WING       CLOUDY    19  12  73 W16G24    29.60R WCI   5
REDWOOD FALLS  PTCLDY    15   9  76 W16       29.63R WCI  -1
MANKATO        FAIR      14  11  87 SW15      29.65R WCI  -1
WORTHINGTON    CLEAR      8   4  83 SW15      29.67S WCI  -9
FAIRMONT       CLEAR     14   9  80 W18       29.69R WCI  -3
$$

...SOUTHWEST WISCONSIN...


CITY           SKY/WX    TMP DP  RH WIND       PRES   REMARKS
LA CROSSE      CLOUDY    24  17  74 W14G28    29.66R WCI  12
PRAIRIE DU CHI CLOUDY    25  18  73 W17       29.73R WCI  12
BOSCOBEL       CLOUDY    27  19  72 W17G28    29.70R WCI  14
LONE ROCK      CLOUDY    28  21  75 W20G31    29.67R WCI  15
PLATTEVILLE    MOCLDY    28  23  83 W25G35    29.71R WCI  13
FORT MC COY    CLOUDY    24  20  83 W18G26    29.62R WCI  10
CAMP DOUGLAS   CLOUDY    24  20  82 W24G32    29.57R WCI   9
MAUSTON-NEW LI CLOUDY    25  20  80 W17G26    29.59R WCI  12
VIROQUA        CLOUDY    21  19  93 W18G25    29.63R WCI   6
WIS DELLS      CLOUDY    26  20  79 W21       29.60R WCI  11
$$

...ELSEWHERE IN WISCONSIN...


CITY           SKY/WX    TMP DP  RH WIND       PRES   REMARKS
MILWAUKEE      MOCLDY    33  25  72 W22G36    29.61R WCI  21
MADISON        CLOUDY    28  21  75 W9G26     29.64R WCI  19
GREEN BAY      CLOUDY    32  24  72 W30G46    29.44R WCI  18
EAU CLAIRE     CLOUDY    20  16  84 W20G29    29.53R FOG     WCI   4
BLACK RVR FLS  CLOUDY    23  18  81 W14G20    29.59R WCI  11
MEDFORD        LGT SNOW  21  18  87 SW15G28   29.42R WCI   7
WAUSAU         MIX PCPN  24  21  88 W22G31    29.41R FOG     WCI   9
WIS RAPIDS     CLOUDY    24  18  77 MISG      29.53R
MARSHFIELD     CLOUDY    22  18  85 W20G31    29.46R FOG     WCI   7
RICE LAKE      LGT SNOW  22  19  88 SW15G22   29.48R WCI   9
$$

...NORTHEAST IOWA...


CITY           SKY/WX    TMP DP  RH WIND       PRES   REMARKS
WATERLOO       FAIR      19  15  84 W16G24    29.77R WCI   4
DUBUQUE        MOCLDY    27  32 100 W28G37    29.71R WCI  11
DECORAH        CLOUDY    18  16  93 W14G22    29.69R WCI   4
MASON CITY     PTCLDY    16  14  92 W17       29.71S WCI   0
CHARLES CITY   CLOUDY    19  19 100 W21G30    29.72R WCI   3
OELWEIN        CLOUDY    21  21 100 W22       29.75R WCI   5
$$

...ELSEWHERE IN IOWA...


CITY           SKY/WX    TMP DP  RH WIND       PRES   REMARKS
DES MOINES     CLEAR     24  18  77 W9        29.85R WCI  14
IOWA CITY      FAIR      30  22  72 W18G28    29.83R WCI  18
FORT DODGE     CLEAR     16  11  80 W14       29.78R WCI   2
MARSHALLTOWN   CLEAR     22  18  85 W20       29.80R WCI   7
CEDAR RAPIDS   FAIR      27  22  81 W21       29.79R WCI  13
$$

...NORTHERN ILLINOIS...


CITY           SKY/WX    TMP DP  RH WIND       PRES   REMARKS
CHICAGO-OHARE  CLOUDY    34  26  72 W24G43    29.71R WCI  21
CHICAGO-MIDWAY CLOUDY    35  27  72 W30G47    29.74R WCI  22
MOLINE         CLOUDY    34  27  75 W20G28    29.79R WCI  23
ROCKFORD       CLOUDY    32  25  75 W18G30    29.73R WCI  20
PEORIA         CLOUDY    34  28  79 W13G23    29.85R WCI  25
$$

NOTE: "FAIR" INDICATES FEW OR NO CLOUDS BELOW 12,000 FEET WITH NO
SIGNIFICANT WEATHER AND/OR OBSTRUCTIONS TO VISIBILITY. WIND
SPEEDS ARE IN MILES-PER-HOUR.




USA.gov is the U.S. government's official web portal to all federal, state and local government web resources and services.